Simultaneous Nadir Overpasses (SNOs) Predictions

Prediction of SNOs between AQUA and METOP-C Satellite Orbit:

Table of predicted SNOs for the next 14.0 days since TLE Epoch: 6/6/2020
Index Date (AQUA) Time (AQUA) Lat,Lon (AQUA) SZA (AQUA ) Date (METOP-C) Time (METOP-C) Lat,Lon (METOP-C) SZA (METOP-C ) Distance(km) Time Diff (sec)
1 06/06/2020 19:13:14 -73.18, 67.29 129.63 06/06/2020 19:12:07 -73.11, 64.95 129.60 75.81 67
2 06/06/2020 20:02:52 73.75,-126.27 50.98 06/06/2020 20:02:33 73.76,-126.25 50.99 1.48 19
3 06/06/2020 20:52:19 -73.80, 41.25 128.97 06/06/2020 20:53:15 -73.79, 41.14 128.99 3.51 56
4 06/09/2020 14:47:34 -73.47, 133.11 129.55 06/09/2020 14:46:23 -73.39, 131.97 129.58 37.35 71
5 06/09/2020 15:37:06 73.73, -59.81 50.72 06/09/2020 15:36:55 73.73, -59.90 50.73 3.03 11
6 06/09/2020 16:26:34 -73.83, 107.62 129.18 06/09/2020 16:27:36 -73.82, 107.62 129.20 1.37 62
7 06/12/2020 10:21:53 -73.67,-160.86 129.53 06/12/2020 10:20:40 -73.67,-160.99 129.52 4.02 73
8 06/12/2020 11:11:22 73.78, 6.53 50.59 06/12/2020 11:11:17 73.76, 6.56 50.57 2.17 5
9 06/12/2020 12:00:49 -73.82, 174.08 129.38 06/12/2020 12:01:58 -73.85, 174.09 129.36 3.08 69
10 06/15/2020 05:56:09 -73.71, -94.52 129.62 06/15/2020 05:55:02 -73.69, -94.53 129.63 2.04 67
11 06/15/2020 06:45:37 73.77, 72.98 50.45 06/15/2020 06:45:39 73.78, 73.02 50.46 1.57 2
12 06/15/2020 07:35:06 -73.91,-119.69 129.40 06/15/2020 07:36:19 -73.92,-119.33 129.42 11.13 73
13 06/18/2020 01:30:23 -73.71, -28.08 129.70 06/18/2020 01:29:23 -73.71, -28.07 129.68 0.66 60
14 06/18/2020 02:19:51 73.77, 139.42 50.38 06/18/2020 02:20:01 73.75, 139.36 50.36 2.97 10




NCC Satellite Simultaneous Nadir Overpasses (SNOs) Prediction Service
